Cleveland Burke, OH

4:25 AM EDT on May 22, 2018 (GMT -0400)
Burke Lakefront

Weather History for KBKL - May, 2014

Change the Weather History Date:

Friday, May 16, 2014

  Actual Average Record
Temperature  
Mean Temperature 46 °F -  
Max Temperature 48 °F 65 °F 84 °F (2017)
Min Temperature 44 °F 50 °F 39 °F (2016)
Degree Days  
Heating Degree Days 19    
Moisture  
Dew Point 38 °F    
Average Humidity 72    
Maximum Humidity 77    
Minimum Humidity 61    
Precipitation  
Precipitation 0.00 in - - ()
Sea Level Pressure  
Sea Level Pressure 29.98 in    
Wind  
Wind Speed 11 mph (NW)    
Max Wind Speed 16 mph    
Max Gust Speed 23 mph    
Visibility 10 miles    
Events Rain    
Averages and records for this station are not official NWS values.
T = Trace of Precipitation, MM = Missing Value Source: NWS Daily Summary

Daily Weather History Graph

Daily Weather History Graph

Search for Another Location

Airport or City:

Astronomy

May. 16, 2014 Rise Set
Actual Time 6:06 AM EDT 8:40 PM EDT
Civil Twilight 5:34 AM EDT 9:11 PM EDT
Nautical Twilight 4:55 AM EDT 9:51 PM EDT
Astronomical Twilight 4:10 AM EDT 10:36 PM EDT
Moon 10:45 PM EDT (5/16) 7:47 AM EDT (5/16)
Length of Visible Light 15h 37m
Length of Day
14h 33m
Waning Gibbous, 95% of the Moon is Illuminated
May 16
Waning Gibbous
May 21
Last Quarter
May 28
New
Jun 5
First Quarter
Jun 13
Full

Hourly Weather History & Observations

Time (EDT) Temp. Windchill Dew Point Humidity Pressure Visibility Wind Dir Wind Speed Gust Speed Precip Events Conditions
12:53 AM 48.0 °F - 39.0 °F 71% 29.99 in 10.0 mi WSW 13.8 mph - N/A   Overcast
1:27 AM 48.2 °F - 39.2 °F 71% 29.98 in 10.0 mi WSW 15.0 mph - N/A   Overcast
2:48 AM 46.4 °F 41.1 °F 39.2 °F 76% 29.96 in 10.0 mi WSW 11.5 mph - N/A   Overcast
2:53 AM 46.9 °F - 39.9 °F 77% 29.95 in 10.0 mi WSW 15.0 mph - N/A   Overcast
4:53 AM 46.9 °F - 37.9 °F 71% 29.95 in 10.0 mi West 16.1 mph 23.0 mph N/A   Overcast
5:45 AM 46.4 °F 40.4 °F 37.4 °F 71% 29.95 in 10.0 mi WNW 13.8 mph - N/A   Overcast
5:53 AM 46.0 °F 39.6 °F 39.0 °F 76% 29.95 in 10.0 mi WNW 15.0 mph - N/A   Overcast
6:06 AM 46.4 °F 40.1 °F 39.2 °F 76% 29.94 in 10.0 mi WNW 15.0 mph - N/A   Overcast
6:13 AM 46.4 °F 39.8 °F 37.4 °F 71% 29.95 in 10.0 mi NW 16.1 mph - N/A   Overcast
6:53 AM 46.0 °F 39.9 °F 37.0 °F 71% 29.96 in 10.0 mi WNW 13.8 mph - N/A   Mostly Cloudy
7:53 AM 45.0 °F 39.3 °F 37.9 °F 76% 29.98 in 10.0 mi NW 11.5 mph - N/A   Mostly Cloudy
8:51 AM 44.6 °F 38.1 °F 37.4 °F 76% 29.98 in 10.0 mi NNW 13.8 mph - N/A   Mostly Cloudy
8:53 AM 45.0 °F 39.3 °F 37.9 °F 76% 29.99 in 10.0 mi NW 11.5 mph - N/A   Mostly Cloudy
9:53 AM 45.0 °F 40.1 °F 37.9 °F 76% 30.00 in 10.0 mi NNW 9.2 mph - N/A   Mostly Cloudy
10:53 AM 45.0 °F 40.6 °F 37.9 °F 76% 29.99 in 10.0 mi NNW 8.1 mph - N/A   Overcast
11:53 AM 45.0 °F 41.8 °F 37.9 °F 76% 30.00 in 10.0 mi North 5.8 mph - N/A   Overcast
12:31 PM 46.4 °F 44.3 °F 39.2 °F 76% 29.99 in 10.0 mi North 4.6 mph - N/A   Scattered Clouds
12:53 PM 46.0 °F 43.1 °F 39.0 °F 76% 30.00 in 10.0 mi NNW 5.8 mph - N/A   Scattered Clouds
1:53 PM 46.9 °F - 37.9 °F 71% 30.00 in 10.0 mi NNW 4.6 mph - N/A   Overcast
2:53 PM 48.0 °F - 39.0 °F 71% 29.99 in 10.0 mi NNW 8.1 mph - N/A   Overcast
4:53 PM 48.0 °F - 37.9 °F 68% 29.99 in 10.0 mi North 8.1 mph - N/A   Clear
5:53 PM 48.9 °F - 37.0 °F 64% 29.99 in 10.0 mi North 5.8 mph - N/A   Partly Cloudy
6:53 PM 48.0 °F - 35.1 °F 61% 30.01 in 10.0 mi NW 4.6 mph - 0.00 in Rain Light Rain
7:53 PM 46.9 °F - 36.0 °F 66% 30.01 in 10.0 mi North 5.8 mph - 0.00 in Rain Light Rain
8:53 PM 46.9 °F - 35.1 °F 63% 30.01 in 10.0 mi Calm Calm - N/A   Mostly Cloudy
9:53 PM 46.9 °F - 36.0 °F 66% 30.03 in 10.0 mi Calm Calm - N/A   Partly Cloudy
10:53 PM 46.0 °F 43.1 °F 36.0 °F 68% 30.01 in 10.0 mi ENE 5.8 mph - N/A   Clear
11:53 PM 46.0 °F 43.9 °F 37.0 °F 71% 30.02 in 10.0 mi SE 4.6 mph - N/A   Clear